Location: Budapest
(47.4979°N, 19.0402°E)
Time: 12:09:51
(UTC+02:00)

ISS - Pass Details

Date: 09 October 2017
Orbit: 401 x 408 km, 51.6° (Epoch: 22 October)

Event Time Altitude Azimuth Distance (km) Brightness Sun altitude
Rises 20:23:11 0° 293° (WNW) 2,329 1.5 -23.6°
Reaches altitude 10° 20:25:17 10° 290° (WNW) 1,468 0.1 -23.9°
Enters shadow 20:27:25 35° 274° (W) 673 -2.2 -24.2°
